TimeEDT,TemperatureF,Dew PointF,Humidity,Sea Level PressureIn,VisibilityMPH,Wind Direction,Wind SpeedMPH,Gust SpeedMPH,PrecipitationIn,Events,Conditions,WindDirDegrees,DateUTC
12:58 AM,65.5,63.5,93,30.01,10.0,ESE,5.8,-,N/A,,Partly Cloudy,120,2013-04-19 04:58:00
1:58 AM,64.9,64.4,98,30.00,10.0,ESE,4.6,-,N/A,,Clear,120,2013-04-19 05:58:00
2:58 AM,64.9,64.9,100,29.96,10.0,ESE,4.6,-,N/A,,Clear,120,2013-04-19 06:58:00
3:58 AM,64.6,64.6,100,29.96,10.0,SSE,4.6,-,N/A,,Clear,150,2013-04-19 07:58:00
4:58 AM,64.6,64.6,100,29.95,10.0,SE,5.8,-,N/A,,Clear,130,2013-04-19 08:58:00
5:58 AM,64.8,64.8,100,29.94,10.0,SE,5.8,-,N/A,,Mostly Cloudy,140,2013-04-19 09:58:00
6:18 AM,66.2,66.2,100,29.93,10.0,SSE,6.9,-,N/A,,Overcast,150,2013-04-19 10:18:00
6:58 AM,66.7,66.7,100,29.95,10.0,SSE,5.8,-,N/A,,Overcast,160,2013-04-19 10:58:00
7:18 AM,68.0,68.0,100,29.94,10.0,Variable,6.9,-,N/A,,Overcast,0,2013-04-19 11:18:00
7:48 AM,69.8,68.0,94,29.95,10.0,South,10.4,-,N/A,,Overcast,180,2013-04-19 11:48:00
7:58 AM,69.6,67.6,93,29.96,10.0,South,11.5,-,N/A,,Overcast,180,2013-04-19 11:58:00
8:58 AM,72.1,67.8,86,29.96,10.0,South,13.8,18.4,N/A,,Overcast,190,2013-04-19 12:58:00
9:28 AM,73.4,68.0,83,29.95,10.0,South,12.7,21.9,N/A,,Overcast,190,2013-04-19 13:28:00
9:58 AM,74.8,67.6,78,29.95,10.0,South,13.8,25.3,N/A,,Mostly Cloudy,190,2013-04-19 13:58:00
10:58 AM,79.9,68.0,67,29.93,10.0,South,16.1,26.5,N/A,,Mostly Cloudy,180,2013-04-19 14:58:00
11:58 AM,81.9,67.1,61,29.91,10.0,South,19.6,25.3,N/A,,Mostly Cloudy,180,2013-04-19 15:58:00
12:58 PM,82.6,67.3,60,29.86,10.0,South,18.4,25.3,N/A,,Mostly Cloudy,170,2013-04-19 16:58:00
1:58 PM,83.7,65.3,54,29.84,10.0,SSW,18.4,28.8,N/A,,Mostly Cloudy,200,2013-04-19 17:58:00
2:58 PM,84.0,64.9,53,29.83,10.0,SSW,16.1,26.5,N/A,,Overcast,200,2013-04-19 18:58:00
3:58 PM,84.4,63.9,50,29.81,10.0,SSW,17.3,28.8,N/A,,Overcast,200,2013-04-19 19:58:00
4:24 PM,78.8,66.2,65,29.81,5.0,SSW,15.0,33.4,N/A,Rain,Rain,200,2013-04-19 20:24:00
4:25 PM,78.8,66.2,65,29.81,4.0,SSW,12.7,33.4,N/A,Rain-Thunderstorm,Light Thunderstorms and Rain,200,2013-04-19 20:25:00
4:58 PM,70.9,65.7,83,29.81,10.0,WSW,6.9,-,0.07,Thunderstorm,Thunderstorm,240,2013-04-19 20:58:00
5:17 PM,71.6,66.2,83,29.86,1.2,WSW,21.9,27.6,N/A,Rain-Thunderstorm,Light Thunderstorms and Rain,240,2013-04-19 21:17:00
5:18 PM,71.6,66.2,83,29.86,2.5,WSW,18.4,27.6,N/A,Rain,Rain,240,2013-04-19 21:18:00
5:25 PM,69.8,64.4,83,29.82,5.0,WSW,8.1,27.6,N/A,Rain-Thunderstorm,Light Thunderstorms and Rain,240,2013-04-19 21:25:00
5:58 PM,68.0,66.9,96,29.86,7.0,West,10.4,-,0.24,Rain,Light Rain,260,2013-04-19 21:58:00
6:58 PM,68.0,67.1,97,29.87,5.0,SSW,5.8,-,0.09,Rain,Light Rain,210,2013-04-19 22:58:00
7:58 PM,68.0,68.0,100,29.88,10.0,SSW,6.9,-,0.03,Rain,Light Rain,200,2013-04-19 23:58:00
8:28 PM,68.0,68.0,100,29.88,5.0,SW,4.6,-,N/A,Rain,Light Rain,220,2013-04-20 00:28:00
8:48 PM,68.0,68.0,100,29.88,5.0,SSW,5.8,-,N/A,Rain,Light Rain,200,2013-04-20 00:48:00
8:58 PM,68.0,68.0,100,29.88,5.0,SSW,4.6,-,0.04,Rain,Light Rain,200,2013-04-20 00:58:00
9:08 PM,68.0,68.0,100,29.88,7.0,SSW,5.8,-,N/A,Rain,Light Rain,200,2013-04-20 01:08:00
9:25 PM,68.0,68.0,100,29.87,10.0,SSW,10.4,-,N/A,Rain,Light Rain,200,2013-04-20 01:25:00
9:58 PM,66.2,64.6,94,29.88,10.0,WSW,6.9,-,0.03,,Overcast,250,2013-04-20 01:58:00
10:58 PM,60.4,55.0,82,29.95,10.0,West,9.2,-,0.00,Rain,Light Rain,270,2013-04-20 02:58:00
11:58 PM,56.8,52.0,84,29.95,10.0,SW,4.6,-,0.02,Rain,Light Rain,230,2013-04-20 03:58:00